Regional Weather Roundup
Issued by NWS

Home | Current Version | Previous Version | Graphics & Text | Print | Product List | Glossary On
Versions: 1 2 3 4 5 6 7 8 9 10 11 12 13 14 15 16 17 18 19 20 21 22 23 24 25 26 27 28 29 30 31 32 33 34 35 36 37 38 39 40 41 42 43 44 45 46 47 48 49 50
000
ASUS45 KCYS 231510
RWRWY

WYOMING REGIONAL WEATHER ROUNDUP
NATIONAL WEATHER SERVICE CHEYENNE WY
900 AM MDT MON MAY 23 2016

NOTE:  "FAIR" INDICATES FEW OR NO CLOUDS BELOW 12,000 FEET
WITH NO SIGNIFICANT WEATHER AND/OR OBSTRUCTIONS TO VISIBILITY.

WYZ001-231600-
YELLOWSTONE NATIONAL PARK

CITY           SKY/WX    TMP DP  RH WIND       PRES   REMARKS
LK YELLOWSTONE   N/A     32  26  78 VRB3      29.95S
W YELLOWSTONE  NOT AVBL

$$
WYZ002>013-054>058-071-098>099-231600-
NORTHERN WYOMING

CITY           SKY/WX    TMP DP  RH WIND       PRES   REMARKS
JACKSON        MOSUNNY   43  32  65 S9        29.94F
CODY           FAIR      52  23  32 SW16G33   29.82S
GREYBULL       FAIR      56  27  32 SE6       29.81F
WORLAND        FAIR      56  25  30 VRB5      29.81F
SHERIDAN       FAIR      60  22  23 SW10      29.76F
BUFFALO        FAIR      56  34  43 E7        29.79F
GILLETTE       FAIR      56  29  35 SW13      29.78F
HULETT         FAIR      59  30  33 CALM      29.82S
NEWCASTLE      FAIR      52  32  46 SE3       29.85F

$$
WYZ014>020-022>026-101>103-231600-
CENTRAL WYOMING

CITY           SKY/WX    TMP DP  RH WIND       PRES   REMARKS
BIG PINEY      FAIR      39  27  62 CALM      29.98S
PINEDALE       FAIR      37  28  70 E5        29.98F WCI  34
DUBOIS         FAIR      43  21  42 W16G25    29.90S
LANDER         FAIR      49  22  34 N6        29.88S
RIVERTON       FAIR      49  24  37 VRB3      29.89F
CASPER         FAIR      50  30  46 SW21G29   29.89F
DOUGLAS        FAIR      55  31  39 W14       29.88F

$$
WYZ021-027>030-104>119-231600-
SOUTHERN WYOMING

CITY           SKY/WX    TMP DP  RH WIND       PRES   REMARKS
EVANSTON       FAIR      39  31  72 S3        29.99F
KEMMERER         N/A     41  32  70 W3        30.00S
FORT BRIDGER   SUNNY     45  32  61 CALM      30.02F
ROCK SPRINGS   FAIR      43  33  68 VRB6      29.99S
DIXON          FAIR      45  30  54 CALM      30.03F
RAWLINS        FAIR      46  28  49 SW14      29.98F
SARATOGA       FAIR      45  25  45 NW5       30.01S
LARAMIE        FAIR      47  28  47 SW20      29.97F
CHEYENNE       FAIR      55  31  39 W12       29.94S
TORRINGTON     NOT AVBL
PINE BLUFFS    FAIR      57  30  35 W10G17    29.94S

$$



USA.gov is the U.S. government's official web portal to all federal, state and local government web resources and services.